Regional Weather Roundup
Issued by NWS

Home | Current Version | Previous Version | Graphics & Text | Print | Product List | Glossary On
Versions: 1 2 3 4 5 6 7 8 9 10 11 12 13 14 15 16 17 18 19 20 21 22 23 24 25 26 27 28 29 30 31 32 33 34 35 36 37 38 39 40 41 42 43 44 45 46 47 48 49 50
000
ASUS43 KIND 240759
RWRIN

WEATHER ROUNDUP FOR INDIANA
NATIONAL WEATHER SERVICE INDIANAPOLIS IN
400 AM EDT MON APR 24 2017

NOTE: "FAIR" INDICATES FEW OR NO CLOUDS BELOW 12,000 FEET WITH NO
SIGNIFICANT WEATHER AND/OR OBSTRUCTIONS TO VISIBILITY.

* - STATION DOES NOT REPORT WEATHER SUCH AS PRECIPITATION OR FOG.

+ - STATION NOT QUALITY CONTROLLED BY THE NATIONAL WEATHER SERVICE.
    USE DATA WITH CAUTION...ESPECIALLY DEWPOINT AND RELATIVE
    HUMIDITY OBSERVATIONS.

INZ001>003-010>013-019-020-240900-
NORTHWEST INDIANA

CITY           SKY/WX    TMP DP  RH WIND       PRES   REMARKS
KNOX *+        CLEAR     37  21  52 SE3       30.02R
MONTICELLO +   PTCLDY    44  34  66 NE3       29.99F

$$

LMZ046-743>745-240900-
SOUTHERN LAKE MICHIGAN

STATION/POSITION TIME  TEMP    WIND        PRES    WAVE
                       AIR SEA DIR/SP/G            HT
                 (UTC) (F)     (DEG/KT/KT) (MB)    (FT)
BURNS HARBOR     0740   45      30/  5/  7 1016.9F
MICHIGAN CITY    0730   46      20/  4/  5   N/A

$$

INZ004-005-014>016-021>024-240900-
NORTH CENTRAL INDIANA

CITY           SKY/WX    TMP DP  RH WIND       PRES   REMARKS
GOSHEN         PTCLDY    43  35  73 CALM      30.02S
PERU/GRISSOM   CLEAR     44  34  67 NE5       29.98F
SOUTH BEND     CLEAR     39  32  76 CALM      30.02F

$$

INZ006>009-017-018-025>027-240900-
NORTHEAST INDIANA

CITY           SKY/WX    TMP DP  RH WIND       PRES   REMARKS
ANGOLA *+      CLEAR     39  39 100 CALM      30.02S
FORT WAYNE     PTCLDY    44  29  55 NE5       30.00F
KENDALLVILLE + CLOUDY    40  36  85 NE3       30.02S

$$

INZ028-029-035-036-043>045-051>053-240900-
WEST CENTRAL INDIANA

CITY           SKY/WX    TMP DP  RH WIND       PRES   REMARKS
CRAWFORDSVL +  CLEAR     43  31  64 N5        29.98S
LAFAYETTE      CLOUDY    43  38  82 CALM      29.99F
TERRE HAUTE    CLEAR     40  32  73 N5        29.96F

$$

INZ030>032-037>040-046>048-054>057-064-065-240900-
CENTRAL INDIANA

CITY           SKY/WX    TMP DP  RH WIND       PRES   REMARKS
CP ATTERBURY + CLEAR     37  34  87 CALM      29.96F
INDIANAPOLIS   CLEAR     48  33  56 N8        29.97F
-EAGLE CREEK   CLEAR     53  30  41 NE6       29.96F
KOKOMO +       CLEAR     42  32  67 NE3       29.99F
SHELBYVILLE    CLEAR     51  34  52 N7        29.95F

$$

INZ033-034-041-042-049-050-058-059-240900-
EAST CENTRAL INDIANA

CITY           SKY/WX    TMP DP  RH WIND       PRES   REMARKS
MUNCIE         CLEAR     45  31  58 CALM      29.99S
RICHMOND +     CLEAR     43  34  70 NE10      29.96F

$$

INZ060-061-067>069-081>083-085>088-240900-
SOUTHWEST INDIANA

CITY           SKY/WX    TMP DP  RH WIND       PRES   REMARKS
EVANSVILLE     CLEAR     55  35  47 N9        29.90S
HUNTINGBURG *+ CLEAR     52  38  58 N8        29.90S

$$

INZ062-063-066-070>080-084-089>092-240900-
SOUTH CENTRAL AND SOUTHEAST INDIANA

CITY           SKY/WX    TMP DP  RH WIND       PRES   REMARKS
BLOOMINGTON    CLEAR     50  32  50 NE7       29.94F
MADISON *+     PTCLDY    54  36  50 N7        29.93S
SEYMOUR +      CLOUDY    48  37  66 N6        29.93F

$$





USA.gov is the U.S. government's official web portal to all federal, state and local government web resources and services.